Regional Weather Roundup
Issued by NWS Northern Indiana

Home | Current Version | Previous Version | Graphics & Text | Print | Product List | Glossary On
Versions: 1 2 3 4 5 6 7 8 9 10 11 12 13 14 15 16 17 18 19 20 21 22 23 24 25 26 27 28 29 30 31 32 33 34 35 36 37 38 39 40 41 42 43 44 45 46 47 48 49 50
000
ASUS43 KIWX 261810
RWRIWX

KIWX WEATHER ROUNDUP
NATIONAL WEATHER SERVICE NORTHERN INDIANA
100 PM EST FRI DEC 26 2014

NOTE: "FAIR" INDICATES FEW OR NO CLOUDS BELOW 12,000 FEET WITH NO
SIGNIFICANT WEATHER AND/OR OBSTRUCTIONS TO VISIBILITY.

* THESE STATIONS ARE NOT UNDER NWS QUALITY CONTROL. THEY ALSO MAY NOT
  REPORT WEATHER SUCH AS PRECIPITATION OR FOG.

INZ001>027-261900-
NORTHERN INDIANA

CITY           SKY/WX    TMP DP  RH WIND       PRES   REMARKS
GARY*          MOSUNNY   48  34  57 SW17      30.04F
VALPARAISO     FAIR      48  38  68 SW13      30.05F
6HR MIN TEMP:  32; 6HR MAX TEMP:  48;

MICHIGAN CITY* FAIR      46  34  61 SW10      30.04F
LAPORTE*       FAIR      49  40  70 SW14      30.05F
6HR MIN TEMP:  34; 6HR MAX TEMP:  49;

KNOX*          FAIR      48  36  61 SW13      30.05F
6HR MIN TEMP:   9; 6HR MAX TEMP:  81;

SOUTH BEND     NOT AVBL
ELKHART*       FAIR      48  34  57 S8        30.06F
GOSHEN         FAIR      47  38  71 SW14      30.06F
6HR MIN TEMP:  34; 6HR MAX TEMP:  47;

MONTICELLO*    FAIR      47  40  74 SW15      30.07F
6HR MIN TEMP:  35; 6HR MAX TEMP:  47;

LOGANSPORT*    FAIR      48  39  71 SW15      30.10F
ROCHESTER*     FAIR      50  41  71 S13       30.09F
WARSAW*        FAIR      46  36  66 SW7       30.08F
ANGOLA*        SUNNY     46  37  71 SW9       30.06F
FORT WAYNE     PTSUNNY   46  38  73 SW16      30.12S
6HR MIN TEMP:  33; 6HR MAX TEMP:  46;

HUNTINGTON*    FAIR      46  38  75 SW13      30.11S
6HR MIN TEMP:  35; 6HR MAX TEMP:  46;

PERU/GRISSOM   FAIR      49  46  88 SW12      30.09F
6HR MIN TEMP:  35; 6HR MAX TEMP:  49;

MARION*        FAIR      45  38  76 SW13G20   30.12F
6HR MIN TEMP:  22; 6HR MAX TEMP:  54;


$$
INZ028>050-261900-
CENTRAL INDIANA

CITY           SKY/WX    TMP DP  RH WIND       PRES   REMARKS
LAFAYETTE      FAIR      49  39  68 SW12G18   30.09F
6HR MIN TEMP:  36; 6HR MAX TEMP:  49;

KOKOMO*        FAIR     N/A N/A N/A SW17G23   30.10F
MUNCIE*        FAIR      46  37  71 SW17G25   30.13F
6HR MIN TEMP:  36; 6HR MAX TEMP:  46;

INDIANAPOLIS   PTSUNNY   49  38  65 SW13      30.13F
6HR MIN TEMP:  31; 6HR MAX TEMP:  49;


$$
MIZ043>046-050>051-056>058-064>065-071>073-077>080-261900-
SOUTHWEST LOWER MICHIGAN

CITY           SKY/WX    TMP DP  RH WIND       PRES   REMARKS
BATTLE CREEK   FAIR      45  35  68 SW13      30.05F
6HR MIN TEMP:  34; 6HR MAX TEMP:  46;

BENTON HARBOR  FAIR      48  36  63 SW15G25   30.03F
6HR MIN TEMP:  34; 6HR MAX TEMP:  48;

COLDWATER*     FAIR      46  36  68 SW10      30.05F
6HR MIN TEMP:  33; 6HR MAX TEMP:  46;

HILLSDALE*     FAIR      45  38  75 SW9       30.06F
6HR MIN TEMP:  32; 6HR MAX TEMP:  45;

HOLLAND        FAIR      46  35  65 SW17G24   30.03F
6HR MIN TEMP:  36; 6HR MAX TEMP:  46;

GRAND RAPIDS   FAIR      46  36  68 SW12      30.02F
6HR MIN TEMP:  34; 6HR MAX TEMP:  46;

KALAMAZOO      FAIR      47  35  63 SW13      30.04F
6HR MIN TEMP:  33; 6HR MAX TEMP:  47;

STURGIS*       FAIR      46  37  71 SW14      30.05F
THREE RIVERS*  FAIR      47  37  67 SW12      30.05F
6HR MIN TEMP:  33; 6HR MAX TEMP:  47;


$$
OHZ001>008-015>018-024>025-261900-
NORTHWEST OHIO

CITY           SKY/WX    TMP DP  RH WIND       PRES   REMARKS
WAUSEON*       FAIR      45  37  76 SW13      30.10F
DEFIANCE       FAIR      46  37  71 SW15      30.11F
6HR MIN TEMP:  33; 6HR MAX TEMP:  46;

FINDLAY        FAIR      48  38  68 SW16      30.12F
6HR MIN TEMP:  34; 6HR MAX TEMP:  48;

TOLEDO EXPRESS FAIR      45  35  68 SW10      30.10F
6HR MIN TEMP:  32; 6HR MAX TEMP:  45;

TOLEDO METCALF FAIR      46  35  65 SW18      30.12F
6HR MIN TEMP:  31; 6HR MAX TEMP:  46;

LIMA           FAIR      47  36  65 SW14      30.13F
6HR MIN TEMP:  34; 6HR MAX TEMP:  47;


$$
AND FOR LAKE MICHIGAN COASTAL AND OPEN LAKE BUOY OBSERVATIONS

STATION/POSITION TEMP    WIND        PRES    VSBY  WAVE
                 AIR SEA DIR/SP/G                  HT/PER
                 (F)     (DEG/KT/KT) (MB)    (MI)  (FT/S)
CALUMET HARBOR    47     200/ 12/ 16 1015.6F
MICHIGAN CITY     46     180/ 15/ 18   N/A
SAINT JOSEPH      44     180/ 10/ 13 1016.9S

$$
&&



USA.gov is the U.S. government's official web portal to all federal, state and local government web resources and services.